EJA88 KEGE-KSEZ

Flight info

Callsign EJA88
Flight time 1h 4m
Altitude 43000
Route BEVVR1 SPRKT JNC TBC
Aircraft C750/M-SBDE3FGHRWXY/S

Departure

Time 2026-04-24 21:02
Airport Eagle County Regional Airport (KEGE)

Arrival

Time 2026-04-24 22:06
Airport Sedona Airport (KSEZ)
Time Latitude Longitude Altitude Speed Heading
2026-04-24 20:52 39.64597 -106.91182 6530 ft 0 kts 180°
2026-04-24 20:56 39.64595 -106.91182 6530 ft 2 kts 180°
2026-04-24 20:57 39.64573 -106.91191 6532 ft 5 kts 203°
2026-04-24 20:57 39.64544 -106.91210 6531 ft 8 kts 193°
2026-04-24 20:57 39.64481 -106.91187 6530 ft 8 kts 112°
2026-04-24 20:57 39.64484 -106.91133 6533 ft 4 kts 78°
2026-04-24 20:58 39.64490 -106.91046 6530 ft 11 kts 94°
2026-04-24 20:58 39.64478 -106.90971 6532 ft 5 kts 153°
2026-04-24 20:58 39.64445 -106.90971 6535 ft 9 kts 177°
2026-04-24 20:58 39.64360 -106.90955 6536 ft 11 kts 171°
2026-04-24 20:59 39.64289 -106.90943 6533 ft 9 kts 175°
2026-04-24 20:59 39.64247 -106.90876 6535 ft 14 kts 90°
2026-04-24 20:59 39.64260 -106.90762 6537 ft 12 kts 83°
2026-04-24 20:59 39.64272 -106.90640 6537 ft 14 kts 81°
2026-04-24 21:00 39.64290 -106.90472 6539 ft 19 kts 82°
2026-04-24 21:00 39.64307 -106.90322 6545 ft 17 kts 82°
2026-04-24 21:00 39.64326 -106.90147 6548 ft 20 kts 82°
2026-04-24 21:00 39.64354 -106.90024 6548 ft 8 kts 27°
2026-04-24 21:01 39.64399 -106.90017 6548 ft 8 kts 351°
2026-04-24 21:01 39.64441 -106.90092 6548 ft 15 kts 266°
2026-04-24 21:01 39.64396 -106.90502 6543 ft 92 kts 262°
2026-04-24 21:01 39.64278 -106.91599 6654 ft 137 kts 264°
2026-04-24 21:02 39.64153 -106.92865 7298 ft 146 kts 263°
2026-04-24 21:02 39.63868 -106.94173 7860 ft 160 kts 235°
2026-04-24 21:02 39.62887 -106.94975 8539 ft 173 kts 215°
2026-04-24 21:02 39.61852 -106.95790 9306 ft 174 kts 215°
2026-04-24 21:03 39.60800 -106.96583 9938 ft 173 kts 214°
2026-04-24 21:03 39.59716 -106.97409 10345 ft 194 kts 216°
2026-04-24 21:03 39.58552 -106.98493 10585 ft 217 kts 230°
2026-04-24 21:03 39.57978 -107.00378 10995 ft 237 kts 262°
2026-04-24 21:04 39.58016 -107.02467 12220 ft 225 kts 270°
2026-04-24 21:04 39.58099 -107.04431 13371 ft 219 kts 270°
2026-04-24 21:04 39.58495 -107.06433 13542 ft 255 kts 294°
2026-04-24 21:04 39.59701 -107.08241 14111 ft 269 kts 312°
2026-04-24 21:05 39.61108 -107.09831 14949 ft 271 kts 318°
2026-04-24 21:05 39.62876 -107.10824 15653 ft 287 kts 342°
2026-04-24 21:05 39.64910 -107.10835 16464 ft 301 kts
2026-04-24 21:05 39.66976 -107.10272 17273 ft 306 kts
2026-04-24 21:06 39.69071 -107.09678 18046 ft 309 kts
2026-04-24 21:06 39.71164 -107.09459 18695 ft 303 kts 346°
2026-04-24 21:06 39.73129 -107.10237 19463 ft 292 kts 327°
2026-04-24 21:06 39.74766 -107.11846 19620 ft 305 kts 306°
2026-04-24 21:07 39.76039 -107.14174 19648 ft 328 kts 299°
2026-04-24 21:07 39.77340 -107.16739 19686 ft 352 kts 299°
2026-04-24 21:07 39.78752 -107.19448 19761 ft 372 kts 300°
2026-04-24 21:07 39.80224 -107.22223 20402 ft 373 kts 300°
2026-04-24 21:08 39.81689 -107.25021 21058 ft 376 kts 300°
2026-04-24 21:08 39.83148 -107.27855 21761 ft 377 kts 300°
2026-04-24 21:08 39.84589 -107.30643 22475 ft 378 kts 300°
2026-04-24 21:08 39.86079 -107.33480 23075 ft 381 kts 301°
2026-04-24 21:09 39.87573 -107.36343 23617 ft 383 kts 300°
2026-04-24 21:09 39.88908 -107.39340 24172 ft 382 kts 293°
2026-04-24 21:09 39.89914 -107.42534 24657 ft 383 kts 286°
2026-04-24 21:09 39.90584 -107.45881 25258 ft 382 kts 279°
2026-04-24 21:10 39.90909 -107.49309 25905 ft 381 kts 272°
2026-04-24 21:10 39.90883 -107.52759 26540 ft 381 kts 266°
2026-04-24 21:10 39.90512 -107.56136 27125 ft 384 kts 259°
2026-04-24 21:10 39.89784 -107.59475 27724 ft 385 kts 253°
2026-04-24 21:11 39.88709 -107.62693 28232 ft 391 kts 246°
2026-04-24 21:11 39.87286 -107.65737 28855 ft 397 kts 240°
2026-04-24 21:11 39.85526 -107.68539 29393 ft 404 kts 233°
2026-04-24 21:11 39.83609 -107.71226 29933 ft 406 kts 233°
2026-04-24 21:12 39.81703 -107.73940 30403 ft 407 kts 234°
2026-04-24 21:12 39.80439 -107.75744 30668 ft 409 kts 234°
2026-04-24 21:12 39.77863 -107.79375 31507 ft 406 kts 233°
2026-04-24 21:12 39.75953 -107.82056 32183 ft 403 kts 233°
2026-04-24 21:13 39.74065 -107.84721 32826 ft 400 kts 233°
2026-04-24 21:13 39.72211 -107.87340 33401 ft 399 kts 233°
2026-04-24 21:13 39.70334 -107.89986 33988 ft 397 kts 233°
2026-04-24 21:13 39.68459 -107.92618 34466 ft 398 kts 233°
2026-04-24 21:14 39.66577 -107.95263 34892 ft 399 kts 233°
2026-04-24 21:14 39.64689 -107.97917 35340 ft 401 kts 233°
2026-04-24 21:14 39.62795 -108.00573 35799 ft 402 kts 233°
2026-04-24 21:14 39.60890 -108.03243 36282 ft 403 kts 233°
2026-04-24 21:15 39.58983 -108.05916 36757 ft 404 kts 233°
2026-04-24 21:15 39.57094 -108.08557 37243 ft 405 kts 233°
2026-04-24 21:15 39.55172 -108.11241 37741 ft 407 kts 233°
2026-04-24 21:15 39.53244 -108.13938 38114 ft 410 kts 233°
2026-04-24 21:16 39.51300 -108.16663 38500 ft 412 kts 233°
2026-04-24 21:16 39.49368 -108.19379 38926 ft 408 kts 233°
2026-04-24 21:16 39.47426 -108.22067 39235 ft 410 kts 232°
2026-04-24 21:16 39.45455 -108.24746 39569 ft 412 kts 232°
2026-04-24 21:17 39.43510 -108.27459 39975 ft 411 kts 233°
2026-04-24 21:17 39.41607 -108.30148 40390 ft 411 kts 233°
2026-04-24 21:17 39.39661 -108.32858 40826 ft 411 kts 232°
2026-04-24 21:17 39.38364 -108.34642 41106 ft 411 kts 232°
2026-04-24 21:18 39.35747 -108.38256 41701 ft 412 kts 232°
2026-04-24 21:18 39.33799 -108.40965 42135 ft 412 kts 232°
2026-04-24 21:18 39.31842 -108.43677 42535 ft 413 kts 232°
2026-04-24 21:18 39.29874 -108.46392 42894 ft 415 kts 231°
2026-04-24 21:19 39.27905 -108.49107 43293 ft 415 kts 231°
2026-04-24 21:19 39.25958 -108.51795 43673 ft 416 kts 231°
2026-04-24 21:19 39.23983 -108.54520 44092 ft 416 kts 231°
2026-04-24 21:19 39.22005 -108.57244 44490 ft 416 kts 231°
2026-04-24 21:20 39.18037 -108.62703 44825 ft 423 kts 231°
2026-04-24 21:20 39.16005 -108.65499 44825 ft 431 kts 231°
2026-04-24 21:21 39.11831 -108.71219 44841 ft 445 kts 231°
2026-04-24 21:21 39.07545 -108.77084 44763 ft 459 kts 230°
2026-04-24 21:21 39.05164 -108.79882 44802 ft 470 kts 223°
2026-04-24 21:22 39.02470 -108.82347 44769 ft 479 kts 219°
2026-04-24 21:22 38.96908 -108.87252 44770 ft 491 kts 219°
2026-04-24 21:23 38.91242 -108.92256 44755 ft 495 kts 219°
2026-04-24 21:23 38.85603 -108.97204 44762 ft 495 kts 219°
2026-04-24 21:24 38.79937 -109.02195 44762 ft 495 kts 219°
2026-04-24 21:24 38.74244 -109.07173 44765 ft 495 kts 219°
2026-04-24 21:25 38.68560 -109.12153 44763 ft 495 kts 219°
2026-04-24 21:25 38.62929 -109.17061 44765 ft 492 kts 219°
2026-04-24 21:26 38.57268 -109.22002 44771 ft 494 kts 219°
2026-04-24 21:26 38.51589 -109.26936 44766 ft 493 kts 219°
2026-04-24 21:27 38.45916 -109.31862 44769 ft 493 kts 219°
2026-04-24 21:27 38.40283 -109.36741 44769 ft 493 kts 219°
2026-04-24 21:28 38.34614 -109.41642 44759 ft 492 kts 219°
2026-04-24 21:28 38.28941 -109.46539 44766 ft 492 kts 219°
2026-04-24 21:29 38.23261 -109.51430 44768 ft 493 kts 219°
2026-04-24 21:29 38.17617 -109.56282 44774 ft 493 kts 219°
2026-04-24 21:30 38.11933 -109.61159 44772 ft 492 kts 219°
2026-04-24 21:30 38.06266 -109.66011 44798 ft 491 kts 219°
2026-04-24 21:31 38.00595 -109.70860 44785 ft 491 kts 219°
2026-04-24 21:31 37.94926 -109.75696 44808 ft 492 kts 219°
2026-04-24 21:32 37.89283 -109.80501 44794 ft 492 kts 219°
2026-04-24 21:32 37.83617 -109.85315 44800 ft 489 kts 219°
2026-04-24 21:33 37.77964 -109.90114 44797 ft 489 kts 219°
2026-04-24 21:33 37.72305 -109.94904 44777 ft 489 kts 219°
2026-04-24 21:34 37.66712 -109.99632 44807 ft 489 kts 219°
2026-04-24 21:34 37.61048 -110.04410 44803 ft 490 kts 219°
2026-04-24 21:35 37.55374 -110.09188 44783 ft 491 kts 219°
2026-04-24 21:35 37.49692 -110.13962 44772 ft 490 kts 219°
2026-04-24 21:36 37.44044 -110.18702 44763 ft 492 kts 219°
2026-04-24 21:36 37.38355 -110.23465 44756 ft 491 kts 219°
2026-04-24 21:37 37.32663 -110.28222 44756 ft 491 kts 219°
2026-04-24 21:37 37.26979 -110.32966 44762 ft 491 kts 219°
2026-04-24 21:38 37.21325 -110.37672 44763 ft 491 kts 219°
2026-04-24 21:38 37.15634 -110.42403 44764 ft 491 kts 219°
2026-04-24 21:39 37.09937 -110.47129 44756 ft 491 kts 219°
2026-04-24 21:39 37.04264 -110.51827 44759 ft 487 kts 219°
2026-04-24 21:40 36.98611 -110.56502 44765 ft 487 kts 219°
2026-04-24 21:40 36.92982 -110.61146 44769 ft 488 kts 219°
2026-04-24 21:41 36.87318 -110.65811 44768 ft 488 kts 219°
2026-04-24 21:41 36.81652 -110.70470 44771 ft 487 kts 219°
2026-04-24 21:42 36.76030 -110.75085 44775 ft 486 kts 219°
2026-04-24 21:42 36.73235 -110.77369 44211 ft 475 kts 219°
2026-04-24 21:42 36.70510 -110.79595 43600 ft 462 kts 219°
2026-04-24 21:42 36.67909 -110.81715 42943 ft 423 kts 220°
2026-04-24 21:43 36.65460 -110.83722 42472 ft 428 kts 220°
2026-04-24 21:43 36.62977 -110.85779 41899 ft 426 kts 220°
2026-04-24 21:43 36.60513 -110.87784 41338 ft 420 kts 220°
2026-04-24 21:43 36.58080 -110.89748 40789 ft 413 kts 220°
2026-04-24 21:44 36.55696 -110.91691 40252 ft 406 kts 221°
2026-04-24 21:44 36.53379 -110.93591 39729 ft 403 kts 221°
2026-04-24 21:44 36.51044 -110.95496 39198 ft 401 kts 221°
2026-04-24 21:44 36.48709 -110.97391 38670 ft 400 kts 221°
2026-04-24 21:45 36.46384 -110.99279 38081 ft 400 kts 221°
2026-04-24 21:45 36.44059 -111.01166 37563 ft 398 kts 221°
2026-04-24 21:45 36.41740 -111.03051 37036 ft 399 kts 221°
2026-04-24 21:45 36.39417 -111.04938 36510 ft 399 kts 221°
2026-04-24 21:46 36.37095 -111.06817 35989 ft 398 kts 221°
2026-04-24 21:46 36.34779 -111.08688 35462 ft 396 kts 221°
2026-04-24 21:46 36.32502 -111.10531 34946 ft 395 kts 222°
2026-04-24 21:46 36.30205 -111.12390 34423 ft 394 kts 222°
2026-04-24 21:47 36.27916 -111.14240 33906 ft 392 kts 222°
2026-04-24 21:47 36.26408 -111.15456 33510 ft 389 kts 222°
2026-04-24 21:47 36.23380 -111.17901 32850 ft 391 kts 222°
2026-04-24 21:47 36.21087 -111.19758 32333 ft 396 kts 222°
2026-04-24 21:48 36.18800 -111.21602 31812 ft 399 kts 221°
2026-04-24 21:48 36.16461 -111.23479 31285 ft 402 kts 221°
2026-04-24 21:48 36.14107 -111.25370 30752 ft 405 kts 221°
2026-04-24 21:48 36.11577 -111.27051 30200 ft 420 kts 213°
2026-04-24 21:49 36.08763 -111.28219 29627 ft 431 kts 206°
2026-04-24 21:49 36.05872 -111.29260 29048 ft 434 kts 206°
2026-04-24 21:49 36.03005 -111.30310 28477 ft 423 kts 206°
2026-04-24 21:49 36.00211 -111.31351 27886 ft 419 kts 206°
2026-04-24 21:50 35.97397 -111.32408 27366 ft 426 kts 205°
2026-04-24 21:50 35.94544 -111.33455 26800 ft 429 kts 204°
2026-04-24 21:50 35.91711 -111.34482 26244 ft 432 kts 204°
2026-04-24 21:50 35.88820 -111.35544 25667 ft 435 kts 204°
2026-04-24 21:51 35.85920 -111.36617 25092 ft 437 kts 203°
2026-04-24 21:51 35.82999 -111.37690 24514 ft 440 kts 203°
2026-04-24 21:51 35.80052 -111.38764 23934 ft 443 kts 202°
2026-04-24 21:51 35.77087 -111.39850 23342 ft 445 kts 202°
2026-04-24 21:52 35.74110 -111.40943 22722 ft 446 kts 202°
2026-04-24 21:52 35.71172 -111.42017 22144 ft 448 kts 202°
2026-04-24 21:52 35.68181 -111.43108 21548 ft 450 kts 202°
2026-04-24 21:52 35.65228 -111.44182 20975 ft 427 kts 201°
2026-04-24 21:53 35.62484 -111.45166 20428 ft 395 kts 202°
2026-04-24 21:53 35.59919 -111.46102 19923 ft 378 kts 202°
2026-04-24 21:53 35.57396 -111.47043 19428 ft 382 kts 202°
2026-04-24 21:53 35.54841 -111.47984 18934 ft 382 kts 201°
2026-04-24 21:54 35.53184 -111.48576 18607 ft 368 kts 201°
2026-04-24 21:54 35.50772 -111.49436 18131 ft 356 kts 201°
2026-04-24 21:54 35.47639 -111.50590 17525 ft 349 kts 201°
2026-04-24 21:54 35.45339 -111.51430 17072 ft 341 kts 201°
2026-04-24 21:55 35.43059 -111.52255 16630 ft 345 kts 201°
2026-04-24 21:55 35.40744 -111.53096 16166 ft 347 kts 201°
2026-04-24 21:55 35.39210 -111.53650 15876 ft 345 kts 200°
2026-04-24 21:55 35.36943 -111.54471 15452 ft 337 kts 200°
2026-04-24 21:56 35.34726 -111.55293 15015 ft 331 kts 202°
2026-04-24 21:56 35.31791 -111.56422 14425 ft 337 kts 202°
2026-04-24 21:56 35.29535 -111.57245 13979 ft 339 kts 201°
2026-04-24 21:56 35.27263 -111.58041 13506 ft 341 kts 201°
2026-04-24 21:57 35.24988 -111.58857 13053 ft 341 kts 201°
2026-04-24 21:57 35.23485 -111.59407 12756 ft 340 kts 201°
2026-04-24 21:57 35.21231 -111.60205 12313 ft 329 kts 200°
2026-04-24 21:57 35.19145 -111.60900 11861 ft 282 kts 202°
2026-04-24 21:58 35.17436 -111.61533 11538 ft 235 kts 205°
2026-04-24 21:58 35.15982 -111.62088 11289 ft 210 kts 205°
2026-04-24 21:58 35.14582 -111.62578 11137 ft 205 kts 202°
2026-04-24 21:58 35.12812 -111.63192 10810 ft 195 kts 202°
2026-04-24 21:59 35.11939 -111.63510 10666 ft 192 kts 204°
2026-04-24 21:59 35.10671 -111.63971 10420 ft 188 kts 205°
2026-04-24 21:59 35.09442 -111.64419 10166 ft 186 kts 204°
2026-04-24 21:59 35.08175 -111.64899 9919 ft 199 kts 207°
2026-04-24 22:00 35.06796 -111.65435 9613 ft 215 kts 206°
2026-04-24 22:00 35.05343 -111.65950 9319 ft 220 kts 204°
2026-04-24 22:00 35.03913 -111.66419 9329 ft 207 kts 203°
2026-04-24 22:00 35.02537 -111.66926 9321 ft 207 kts 206°
2026-04-24 22:01 35.01160 -111.67442 9339 ft 206 kts 206°
2026-04-24 22:01 34.99828 -111.67905 9303 ft 194 kts 202°
2026-04-24 22:01 34.98570 -111.68330 9302 ft 183 kts 204°
2026-04-24 22:01 34.97353 -111.68778 9172 ft 177 kts 205°
2026-04-24 22:02 34.96192 -111.69198 8810 ft 174 kts 206°
2026-04-24 22:02 34.95086 -111.69581 8520 ft 156 kts 205°
2026-04-24 22:02 34.94064 -111.69950 8358 ft 145 kts 207°
2026-04-24 22:02 34.93125 -111.70266 7847 ft 145 kts 203°
2026-04-24 22:03 34.92029 -111.70672 7150 ft 181 kts 202°
2026-04-24 22:03 34.90955 -111.71270 6970 ft 156 kts 218°
2026-04-24 22:03 34.90226 -111.72188 6907 ft 148 kts 230°
2026-04-24 22:03 34.89596 -111.73007 6824 ft 121 kts 218°
2026-04-24 22:04 34.89023 -111.73775 6700 ft 124 kts 228°
2026-04-24 22:04 34.88380 -111.74498 6230 ft 131 kts 225°
2026-04-24 22:04 34.87764 -111.75218 5968 ft 114 kts 227°
2026-04-24 22:04 34.87220 -111.75895 5695 ft 113 kts 231°
2026-04-24 22:05 34.86668 -111.76605 5351 ft 114 kts 225°
2026-04-24 22:05 34.86117 -111.77297 5152 ft 118 kts 226°
2026-04-24 22:05 34.85507 -111.78045 4911 ft 130 kts 227°
2026-04-24 22:05 34.84923 -111.78762 4790 ft 100 kts 230°
2026-04-24 22:06 34.84627 -111.79138 4772 ft 23 kts 226°
2026-04-24 22:06 34.84580 -111.79195 4764 ft 9 kts 231°
2026-04-24 22:06 34.84521 -111.79274 4760 ft 14 kts 244°
2026-04-24 22:06 34.84554 -111.79316 4758 ft 4 kts 355°
2026-04-24 22:07 34.84572 -111.79313 4767 ft 7 kts 13°
2026-04-24 22:07 34.84616 -111.79268 4767 ft 10 kts 47°
2026-04-24 22:07 34.84665 -111.79221 4771 ft 5 kts 358°
2026-04-24 22:07 34.84702 -111.79200 4771 ft 10 kts 44°
2026-04-24 22:08 34.84760 -111.79129 4771 ft 14 kts 45°
2026-04-24 22:08 34.84827 -111.79046 4779 ft 9 kts 44°
2026-04-24 22:08 34.84863 -111.79053 4785 ft 10 kts 315°
2026-04-24 22:08 34.84913 -111.79114 4788 ft 10 kts 316°
2026-04-24 22:09 34.84918 -111.79145 4787 ft 3 kts 268°
2026-04-24 22:09 34.84925 -111.79157 4788 ft 2 kts 322°
2026-04-24 22:09 34.84927 -111.79159 4788 ft 0 kts 321°